Wind_Speed
5 3 3 4 3 3 6 6 6 6 6 6 5 3 2 1 2 3 1 3 5 7 7 7 9 10 12 13 13 14 15 17 18 19 18 17 16 15 13 12 10 8 6 5 5 4 3 4 6
5 2 2 3 3 5 5 4 4 4 4 4 4 3 3 2 2 3 3 2 3 4 6 6 7 9 10 11 12 13 14 15 17 17 17 17 17 16 15 14 14 12 9 7 6 5 4 3 6
5 4 5 5 7 5 3 3 3 3 3 3 2 3 3 2 2 4 4 3 2 2 3 4 6 7 8 9 10 11 12 13 14 14 15 15 16 17 17 16 16 15 13 11 9 8 6 4 2
7 8 7 10 8 6 5 3 3 2 2 2 1 2 2 2 2 3 4 4 3 2 2 2 3 4 6 7 8 8 9 10 10 11 12 13 13 15 16 16 17 17 16 14 12 10 9 7 4
5 5 5 8 7 6 6 4 3 2 3 3 2 2 2 2 2 1 2 4 4 4 3 2 2 2 3 4 5 6 5 5 6 7 8 9 10 12 14 15 16 16 16 16 15 13 10 8 6
4 3 2 3 2 4 4 3 2 2 3 3 2 2 2 3 3 1 1 3 4 5 5 4 3 2 3 4 5 5 4 3 1 2 4 4 6 8 11 13 14 14 14 14 15 14 13 10 7
4 3 3 2 2 2 2 2 2 1 1 1 2 2 3 4 3 2 0 2 3 4 6 6 5 5 5 5 5 5 5 4 3 2 2 1 1 3 5 8 11 12 12 12 12 13 12 11 8
6 6 6 7 7 5 3 3 3 3 3 2 3 3 3 4 4 3 3 2 2 3 4 6 7 8 8 7 6 6 6 6 5 5 3 2 1 1 2 3 6 8 9 9 10 10 10 9 8
11 10 8 10 11 9 8 7 7 7 7 7 6 6 5 5 4 4 4 4 4 4 4 5 7 8 9 10 9 8 8 8 7 6 5 4 3 3 3 2 3 4 5 6 6 7 8 8 7
14 14 11 14 16 13 12 12 11 11 11 10 10 9 8 8 8 7 6 6 7 7 7 7 7 8 9 11 12 11 12 11 10 10 8 7 6 5 5 4 4 4 3 3 3 4 5 6 6
17 18 16 17 17 16 16 16 15 16 15 13 14 13 11 11 11 10 9 9 9 9 10 11 11 10 10 11 12 13 15 15 14 14 13 12 10 8 8 7 7 7 6 5 5 5 5 5 5
18 19 18 18 17 19 19 20 19 19 17 17 18 18 18 17 15 14 13 11 10 11 11 12 12 13 13 13 14 15 16 18 18 18 17 16 14 12 10 10 10 10 10 9 8 8 9 8 8
20 21 20 20 20 21 22 23 23 22 20 21 22 23 23 22 20 18 17 16 14 13 13 12 12 13 14 16 16 16 17 19 20 20 20 18 17 15 14 13 13 14 14 13 11 11 11 11 10
21 22 22 23 24 25 25 26 28 26 22 24 24 25 26 24 23 22 21 21 19 18 17 16 17 16 15 16 18 18 18 19 20 21 21 21 21 20 18 16 16 17 17 16 14 14 14 14 14
22 24 26 27 29 30 28 31 34 31 28 28 27 28 28 28 27 27 27 26 25 24 22 21 21 21 20 18 18 19 20 19 20 21 22 23 24 24 23 21 20 20 19 18 17 16 17 16 15
25 27 28 29 32 35 33 37 39 37 34 33 32 33 32 31 31 32 32 30 29 29 28 28 26 25 24 23 21 21 21 21 21 21 23 24 25 26 26 25 24 23 22 21 21 19 18 17 17
27 28 28 32 33 36 37 39 42 41 38 38 38 37 37 37 36 36 35 34 33 32 32 32 30 28 28 26 25 25 23 24 24 23 24 25 25 26 26 26 26 25 24 24 24 22 21 20 19
29 30 32 34 36 35 32 35 43 43 41 41 42 42 42 42 41 40 38 37 36 36 35 35 35 32 30 29 28 28 28 26 26 26 26 27 27 27 26 26 27 26 26 27 27 25 24 22 21
31 32 34 35 38 42 44 44 45 45 43 42 42 44 44 45 44 42 40 40 39 39 38 37 37 36 34 32 31 31 31 30 29 28 28 28 29 29 28 28 29 29 28 29 28 27 26 23 22
32 34 36 38 40 43 45 45 43 44 43 42 41 41 42 42 42 40 39 39 38 37 36 36 35 35 34 32 32 33 34 34 32 31 30 29 30 30 30 30 31 31 31 30 29 28 26 24 22
30 34 37 39 40 42 43 44 43 42 43 43 41 39 39 38 37 36 35 35 34 32 31 30 30 30 30 31 31 34 35 34 33 32 32 31 31 32 31 32 33 33 33 31 29 29 27 25 23
25 28 31 34 38 39 39 42 37 34 40 42 41 39 36 34 33 31 31 31 30 29 28 26 25 25 26 28 30 33 35 36 36 37 38 34 33 34 34 35 36 36 34 31 31 31 29 27 25
24 28 31 34 34 33 32 33 32 35 40 41 39 38 38 36 33 30 29 29 29 29 28 26 26 25 26 28 30 31 34 37 39 42 42 39 37 38 37 39 39 37 34 31 31 33 32 30 27
27 29 31 30 26 23 21 24 29 35 39 40 37 37 37 36 34 32 31 30 30 30 30 30 29 28 29 30 32 33 34 38 41 43 43 41 39 40 40 40 39 37 34 33 34 35 35 32 28
26 27 27 24 19 16 16 19 26 31 37 40 40 39 37 36 35 33 33 33 33 33 33 33 33 32 33 34 34 34 35 37 41 43 43 39 39 40 40 38 37 37 34 34 35 37 36 33 28
23 22 23 20 15 13 14 17 19 23 29 35 40 43 41 38 37 35 35 34 34 34 35 36 36 36 36 36 36 34 33 34 37 38 39 39 38 38 37 35 35 35 34 34 35 37 34 30 26
22 21 20 18 14 13 14 15 18 21 24 26 30 34 36 36 34 33 33 33 33 34 35 36 37 38 37 36 34 32 31 31 32 33 35 36 36 35 35 36 37 36 36 34 34 34 30 27 25
23 21 19 17 14 12 12 14 15 14 16 16 18 21 22 22 22 23 23 25 28 30 33 35 35 35 34 32 30 29 28 28 28 27 29 31 33 34 35 36 35 35 34 33 31 29 26 24 24
23 22 20 17 15 14 14 15 16 13 12 10 6 5 9 9 10 10 12 14 16 19 23 25 27 28 28 27 25 24 24 25 25 26 28 29 30 31 31 30 28 27 26 26 26 24 21 21 22
23 22 21 18 16 16 16 17 16 12 11 9 8 8 7 6 5 4 3 5 7 9 11 13 16 17 19 19 19 19 20 21 22 24 24 24 23 21 19 19 20 21 22 21 20 20 19 20 22
Wind_Direction
89 99 113 117 113 119 86 76 64 47 36 28 17 359 342 296 239 235 193 124 91 84 96 108 108 106 99 94 93 92 90 87 83 77 72 68 63 60 57 56 55 51 46 39 32 17 340 255 231
85 106 129 156 123 108 93 79 64 42 24 24 15 356 347 315 263 234 214 171 117 87 90 109 115 113 107 101 100 98 93 88 84 78 73 68 64 60 58 56 53 50 45 41 39 30 2 292 235
91 95 100 122 90 96 96 80 66 44 28 16 6 3 357 327 277 247 224 217 180 131 98 100 114 119 117 111 109 105 96 88 82 78 72 67 62 58 56 55 54 52 47 43 41 39 28 6 262
106 95 102 90 85 87 84 74 57 39 22 21 1 346 348 343 314 256 230 227 220 209 150 106 104 117 125 126 125 120 105 91 81 74 69 64 59 54 52 51 52 54 51 46 43 43 41 35 34
137 116 97 86 83 78 73 58 44 28 34 27 12 10 347 347 343 294 233 224 219 221 221 185 148 138 146 151 153 148 132 104 81 69 64 60 54 50 48 46 47 52 53 50 48 48 48 46 47
174 183 110 76 96 93 87 89 78 61 61 43 10 18 3 359 358 340 218 214 214 222 236 231 220 215 206 195 187 180 174 163 94 45 47 50 47 42 40 39 39 45 52 53 50 50 51 49 48
196 210 148 247 210 169 144 147 156 149 122 64 2 14 24 13 16 18 315 229 220 226 241 246 245 246 245 235 223 213 207 209 230 268 316 352 24 25 22 26 28 32 42 49 49 50 52 52 51
217 216 205 218 219 211 201 210 226 235 227 245 283 319 352 11 8 3 352 318 263 245 250 254 253 252 252 249 243 235 231 228 227 234 251 262 255 292 336 356 11 18 28 40 46 47 48 50 49
228 227 221 233 233 227 228 233 239 240 240 237 246 263 282 303 320 332 333 321 308 297 283 269 260 257 254 252 249 242 238 235 231 231 236 246 248 258 276 301 324 349 11 29 39 41 38 37 34
233 233 233 239 241 235 234 234 238 237 241 245 250 250 261 274 284 294 303 306 306 305 299 288 273 266 261 257 255 250 244 240 238 239 241 248 246 249 268 269 273 285 306 333 353 10 17 16 14
240 242 240 241 245 244 241 241 242 243 245 254 261 264 262 268 275 281 285 289 294 299 300 297 290 283 275 267 262 259 253 247 244 244 243 245 247 247 260 264 262 263 269 279 291 298 310 326 335
248 251 251 252 251 249 247 248 250 253 258 260 268 272 273 271 270 272 272 276 282 289 293 293 294 292 288 281 271 264 260 255 250 249 249 247 248 248 249 257 262 261 263 268 277 286 291 293 296
252 253 254 255 254 254 252 253 253 254 258 262 265 268 271 271 269 269 270 269 270 275 280 285 286 290 294 291 284 274 267 262 257 254 254 254 255 256 254 250 257 262 263 264 270 281 289 291 290
263 266 265 263 262 261 260 262 260 256 257 259 260 263 264 266 269 271 272 272 271 271 274 280 286 285 287 292 289 281 274 268 265 261 257 257 259 261 263 261 258 259 262 265 269 278 285 290 287
269 270 271 271 269 267 267 268 266 264 262 263 263 264 263 265 268 271 272 273 275 276 278 283 286 287 287 289 290 285 278 273 270 270 267 263 261 263 266 270 267 261 260 264 268 277 283 287 285
269 270 273 273 275 273 271 270 269 268 268 269 268 267 267 266 267 268 270 273 277 281 283 285 287 287 287 287 287 285 279 274 271 270 272 271 270 269 271 273 271 266 263 264 267 274 281 285 284
268 269 269 270 270 273 271 270 270 270 270 270 270 269 269 268 267 267 269 273 277 280 282 283 284 284 284 283 282 281 278 272 269 269 273 274 275 275 275 274 272 269 266 265 266 272 278 280 280
276 274 270 271 270 268 266 272 275 274 273 272 272 271 270 270 269 269 271 272 274 275 277 280 282 282 281 281 280 277 275 272 268 267 270 274 275 275 276 275 274 272 270 267 264 269 276 277 276
282 279 275 273 270 269 274 279 279 278 275 272 271 270 270 269 270 270 270 270 271 272 275 276 277 278 277 276 275 274 274 272 269 268 269 272 274 274 274 274 275 274 271 269 263 267 272 271 272
286 282 278 274 273 273 274 276 278 278 274 272 271 270 269 269 269 269 268 268 268 268 269 270 271 272 274 273 272 271 271 271 270 270 271 274 274 275 275 273 274 276 274 269 262 262 266 266 268
289 286 284 283 280 277 275 272 275 277 276 275 272 271 269 268 266 265 264 263 263 262 262 263 266 270 273 274 271 270 269 269 270 271 273 274 276 277 277 278 277 278 276 267 259 259 262 263 265
303 301 300 295 288 279 272 270 270 271 270 271 271 270 268 266 264 262 260 257 255 254 254 256 261 269 274 277 276 272 271 270 268 269 271 272 275 278 282 284 284 282 280 270 259 255 258 260 263
314 313 310 305 295 284 272 266 261 255 258 262 265 264 263 262 261 258 254 251 249 248 249 252 260 269 276 281 283 279 273 270 268 268 267 267 272 276 281 284 285 286 284 275 263 255 254 255 260
315 317 317 317 311 293 276 261 253 249 251 255 256 260 260 259 256 253 250 249 248 248 249 254 260 268 276 282 285 282 275 270 268 267 267 267 270 272 279 286 285 284 283 277 268 258 253 252 256
320 323 326 329 323 303 285 264 257 254 252 252 253 256 256 256 255 251 248 248 249 251 253 257 262 269 275 280 283 281 276 271 267 268 268 270 273 277 284 289 285 281 279 275 267 259 255 252 254
336 335 338 338 331 320 301 280 271 267 263 260 258 260 261 260 257 253 249 249 250 253 256 259 263 269 274 277 279 277 272 269 267 269 270 274 279 281 283 287 287 281 278 272 263 255 254 250 251
353 352 349 346 337 329 325 305 289 289 287 279 267 262 261 262 259 255 252 252 253 256 259 262 264 267 270 273 273 270 266 265 266 267 269 272 277 278 280 284 283 279 272 262 255 250 248 247 251
3 1 356 353 352 346 331 325 326 319 314 299 280 263 256 255 251 249 251 254 257 258 261 263 265 266 267 268 266 261 258 259 263 266 266 269 273 275 276 275 273 269 260 251 245 241 242 247 255
10 10 7 4 2 0 357 352 349 349 352 353 337 248 232 234 236 239 250 256 259 260 262 264 265 266 265 263 262 258 254 255 259 264 266 267 268 268 267 263 258 252 245 240 237 238 245 253 261
17 20 23 22 21 20 18 14 9 13 18 32 50 77 89 97 103 128 185 223 244 255 259 262 265 267 266 263 260 256 255 257 261 264 264 263 260 257 253 246 237 233 235 236 240 249 256 261 265
Height
5907 5907 5908 5909 5910 5910 5909 5910 5910 5910 5910 5909 5909 5909 5908 5909 5911 5913 5911 5911 5911 5910 5910 5910 5910 5909 5909 5909 5909 5909 5908 5908 5907 5906 5905 5904 5902 5901 5900 5899 5898 5898 5897 5897 5897 5897 5896 5897 5897
5908 5909 5909 5910 5910 5910 5911 5912 5912 5911 5911 5910 5909 5909 5909 5910 5910 5910 5910 5911 5912 5911 5911 5911 5911 5911 5911 5911 5911 5910 5910 5910 5909 5908 5907 5906 5904 5903 5902 5901 5900 5899 5899 5898 5898 5897 5897 5897 5897
5910 5910 5911 5910 5910 5911 5912 5912 5913 5912 5912 5911 5910 5910 5910 5910 5910 5910 5910 5911 5912 5912 5912 5912 5912 5912 5912 5912 5912 5912 5911 5911 5911 5910 5909 5908 5907 5905 5904 5903 5902 5901 5901 5900 5899 5899 5898 5897 5897
5912 5912 5912 5912 5912 5912 5913 5913 5913 5913 5912 5911 5911 5911 5910 5910 5910 5910 5909 5910 5911 5912 5913 5912 5912 5913 5913 5913 5913 5913 5913 5913 5913 5912 5911 5911 5909 5908 5906 5905 5904 5903 5902 5902 5901 5900 5899 5898 5898
5912 5913 5913 5913 5913 5913 5913 5913 5914 5914 5913 5912 5911 5911 5910 5910 5910 5910 5910 5910 5911 5912 5912 5912 5912 5913 5913 5913 5913 5913 5913 5914 5914 5914 5913 5913 5912 5910 5909 5907 5906 5905 5904 5903 5902 5901 5900 5900 5900
5913 5914 5914 5914 5914 5914 5914 5914 5914 5914 5914 5913 5912 5912 5911 5911 5911 5910 5910 5910 5911 5912 5912 5912 5912 5913 5913 5913 5913 5913 5913 5914 5914 5914 5914 5914 5913 5912 5911 5909 5908 5907 5906 5905 5904 5903 5902 5901 5901
5914 5914 5914 5915 5915 5915 5915 5915 5915 5915 5914 5914 5913 5912 5912 5912 5911 5911 5911 5910 5910 5911 5912 5912 5912 5912 5913 5913 5913 5913 5913 5914 5914 5914 5914 5914 5913 5912 5912 5911 5910 5909 5907 5906 5905 5904 5903 5902 5902
5913 5914 5914 5914 5914 5915 5915 5915 5915 5914 5914 5914 5913 5913 5913 5913 5912 5912 5911 5911 5911 5911 5911 5911 5911 5911 5912 5912 5913 5913 5913 5913 5913 5913 5913 5913 5913 5912 5912 5911 5911 5910 5909 5907 5906 5905 5904 5904 5903
5911 5913 5912 5912 5912 5913 5913 5914 5914 5914 5913 5913 5912 5912 5912 5912 5912 5912 5912 5911 5911 5911 5910 5910 5910 5911 5911 5911 5912 5912 5912 5913 5913 5912 5912 5912 5912 5912 5911 5911 5910 5910 5909 5908 5907 5906 5906 5905 5904
5910 5910 5910 5911 5910 5911 5911 5911 5911 5911 5911 5911 5911 5911 5911 5911 5911 5912 5911 5911 5910 5910 5910 5910 5910 5910 5910 5910 5910 5910 5911 5911 5911 5911 5911 5911 5911 5911 5910 5910 5910 5909 5909 5909 5908 5907 5906 5905 5905
5907 5907 5908 5908 5908 5909 5909 5908 5908 5908 5908 5909 5909 5909 5909 5909 5909 5910 5910 5909 5909 5909 5909 5909 5909 5908 5908 5908 5908 5908 5909 5909 5909 5909 5909 5909 5910 5910 5910 5909 5909 5908 5908 5908 5908 5907 5906 5906 5905
5904 5904 5904 5905 5906 5906 5906 5906 5906 5906 5908 5908 5907 5906 5906 5906 5906 5906 5907 5907 5907 5906 5907 5907 5907 5907 5906 5906 5906 5906 5906 5906 5906 5906 5907 5907 5907 5908 5909 5908 5907 5907 5907 5906 5907 5906 5906 5906 5905
5900 5900 5901 5901 5902 5902 5903 5902 5902 5903 5905 5904 5904 5903 5903 5902 5903 5903 5903 5903 5903 5903 5903 5904 5904 5904 5903 5903 5903 5903 5903 5903 5904 5904 5904 5905 5905 5905 5906 5906 5906 5905 5904 5904 5905 5905 5905 5904 5903
5897 5898 5898 5898 5898 5898 5899 5899 5897 5899 5901 5900 5900 5899 5899 5899 5899 5899 5899 5899 5899 5900 5900 5900 5900 5900 5900 5900 5899 5899 5899 5899 5900 5900 5901 5901 5902 5902 5902 5903 5903 5903 5902 5902 5902 5902 5902 5901 5901
5895 5895 5895 5894 5893 5892 5894 5893 5890 5893 5895 5894 5895 5894 5895 5895 5895 5894 5894 5894 5895 5895 5896 5896 5896 5896 5895 5896 5895 5895 5895 5896 5896 5896 5897 5897 5898 5898 5899 5899 5900 5899 5899 5899 5899 5899 5899 5898 5898
5891 5891 5890 5889 5887 5887 5890 5885 5883 5886 5888 5888 5888 5888 5888 5889 5889 5888 5888 5889 5890 5890 5891 5892 5892 5892 5891 5891 5891 5890 5891 5891 5892 5892 5892 5893 5893 5893 5894 5895 5895 5895 5895 5895 5895 5895 5895 5895 5894
5886 5884 5884 5883 5881 5880 5881 5878 5876 5877 5880 5880 5880 5880 5880 5881 5882 5882 5883 5884 5885 5886 5885 5885 5886 5887 5887 5887 5886 5886 5886 5886 5887 5888 5887 5888 5888 5888 5889 5890 5890 5890 5890 5890 5890 5890 5891 5891 5890
5879 5879 5878 5876 5873 5873 5870 5869 5866 5868 5871 5872 5871 5871 5871 5872 5873 5875 5877 5878 5879 5879 5879 5879 5879 5880 5881 5882 5882 5881 5880 5880 5881 5883 5883 5882 5882 5883 5884 5884 5884 5885 5885 5885 5885 5885 5885 5886 5885
5872 5870 5869 5868 5865 5864 5862 5862 5859 5858 5860 5862 5862 5861 5861 5862 5864 5867 5868 5869 5871 5871 5872 5872 5872 5872 5874 5875 5876 5875 5874 5874 5875 5876 5877 5876 5876 5877 5877 5878 5877 5878 5878 5878 5879 5879 5879 5880 5880
5864 5861 5859 5859 5857 5855 5854 5853 5851 5847 5848 5850 5851 5851 5851 5853 5854 5856 5858 5860 5861 5863 5864 5864 5864 5864 5865 5867 5868 5868 5868 5867 5868 5869 5869 5869 5869 5869 5870 5871 5870 5871 5871 5871 5871 5873 5873 5874 5874
5856 5852 5849 5848 5847 5845 5843 5842 5842 5838 5836 5838 5839 5840 5841 5843 5844 5846 5848 5850 5851 5853 5855 5856 5856 5857 5858 5858 5859 5860 5858 5860 5861 5861 5861 5861 5862 5862 5863 5863 5863 5863 5862 5862 5863 5866 5867 5867 5868
5849 5844 5841 5837 5834 5832 5832 5829 5833 5830 5826 5825 5827 5829 5831 5833 5834 5837 5839 5841 5843 5845 5847 5848 5849 5850 5851 5851 5851 5852 5852 5852 5852 5851 5851 5852 5853 5854 5854 5855 5855 5854 5854 5854 5856 5858 5859 5861 5861
5842 5838 5833 5827 5821 5818 5819 5819 5822 5818 5815 5815 5817 5818 5820 5822 5825 5828 5831 5833 5835 5837 5839 5841 5842 5843 5844 5844 5844 5844 5844 5844 5843 5843 5841 5841 5843 5844 5845 5846 5846 5846 5847 5847 5848 5850 5851 5853 5854
5836 5831 5825 5818 5812 5809 5809 5809 5809 5808 5807 5807 5807 5806 5808 5811 5815 5818 5821 5824 5827 5829 5832 5834 5835 5836 5836 5836 5836 5836 5835 5836 5835 5835 5833 5832 5833 5835 5837 5838 5838 5838 5839 5840 5840 5841 5843 5844 5846
5831 5826 5819 5812 5807 5804 5802 5801 5800 5798 5797 5797 5796 5795 5797 5801 5805 5808 5812 5815 5818 5821 5824 5826 5827 5828 5828 5828 5827 5827 5827 5827 5826 5826 5824 5824 5826 5827 5828 5829 5829 5830 5831 5831 5832 5833 5834 5836 5838
5826 5821 5816 5810 5805 5801 5798 5796 5794 5792 5790 5788 5787 5787 5789 5792 5795 5799 5802 5806 5809 5812 5814 5816 5818 5818 5818 5818 5817 5817 5818 5818 5818 5818 5817 5818 5820 5820 5820 5821 5821 5821 5822 5822 5823 5825 5826 5828 5830
5823 5818 5814 5809 5804 5801 5798 5794 5791 5788 5784 5781 5779 5779 5780 5783 5787 5790 5793 5797 5800 5802 5804 5806 5807 5808 5808 5808 5808 5808 5809 5809 5810 5810 5811 5811 5812 5812 5812 5812 5812 5812 5813 5814 5815 5817 5818 5820 5822
5823 5817 5813 5808 5804 5801 5798 5793 5790 5786 5781 5777 5773 5773 5775 5778 5781 5783 5787 5789 5792 5793 5795 5796 5796 5797 5798 5798 5799 5800 5801 5802 5802 5802 5803 5803 5803 5803 5804 5803 5803 5804 5804 5806 5808 5809 5810 5812 5814
5824 5818 5813 5808 5804 5801 5797 5796 5789 5785 5781 5777 5773 5772 5773 5776 5778 5781 5783 5784 5785 5786 5787 5788 5788 5788 5789 5790 5791 5793 5794 5795 5796 5796 5796 5795 5795 5795 5795 5795 5796 5797 5797 5799 5800 5802 5803 5804 5806
5824 5819 5814 5810 5806 5802 5798 5798 5790 5786 5782 5779 5777 5776 5776 5777 5778 5780 5781 5782 5783 5783 5783 5783 5783 5783 5783 5784 5785 5787 5788 5789 5790 5790 5790 5789 5789 5788 5789 5789 5790 5791 5792 5793 5794 5796 5797 5798 5799